User: anonymous   Login
Location: Goheenville
(40.9070°N, 79.3720°W)
Time: 20:09:22
(UTC-04:00)
Language:

Meteor 2-10 Rocket - Orbit

View from above orbital plane
View from above orbital plane
View from above satellite
View from above satellite

Ground track
Ground track

The orbit data is extracted from the following two-line orbital elements,

1 14453U 83109B   17080.80914205 +.00000056 +00000-0 +18134-4 0  9995
2 14453 081.1691 194.2015 0104177 316.8518 042.4529 14.24669248735017
Epoch (UTC): 21 March 2017 19:25:09
Eccentricity: 0.0104177
inclination: 81.1691°
perigee height: 735 km
apogee height: 884 km
right ascension of ascending node: 194.2015°
argument of perigee: 316.8518°
revolutions per day: 14.24669248
mean anomaly at epoch: 42.4529°
orbit number at epoch: 73501

The dashed part of the orbit path shows where the satellite is in the earth's shadow,  

DLR